Location: ??????? ??????
(44.1750°N, 135.3897°E)
Time: 14:41:16
(UTC+00:00)

Daily predictions for brighter satellites

Satellite Brightness Start Highest point End
(mag) Time Altitude Azimuth Time Altitude Azimuth Time Altitude Azimuth
Lacrosse 5 rocket 2.8 12:00:05 10° W 12:03:25 35° NNW 12:06:43 10° NE
Cosmos 1420 Rocket 4.4 12:00:40 10° NNW 12:05:44 50° ENE 12:09:35 17° SE
Okean-O 2.9 12:02:33 10° S 12:06:53 65° WSW 12:11:15 10° NNW
Cosmos 1633 Rocket 4.1 12:03:21 10° NNE 12:07:16 31° ENE 12:09:56 17° SE
NOSS 3-2 (C) 4.4 12:03:26 10° WSW 12:08:17 46° NW 12:14:04 10° NNE
SL-08 R/B 4.2 12:08:01 10° N 12:12:25 48° WNW 12:16:48 10° SW
IRS-1C Rocket 4.4 12:09:40 16° SE 12:13:41 56° ENE 12:18:49 10° N
Meteor 1-13 Rocket 4.4 12:08:10 10° S 12:13:59 63° E 12:19:52 10° NNE
Ariane Rocket 3.2 12:11:38 17° SSE 12:15:27 58° ENE 12:20:27 10° N
S3M 4.2 12:11:01 13° SSE 12:16:19 54° E 12:22:17 10° NNE
Spot 2 Rocket 4.3 12:12:53 10° S 12:17:46 48° W 12:22:41 10° NNW
Cosmos 1553 Rocket 4.3 12:11:31 10° SSW 12:17:50 70° W 12:24:06 10° N
Cosmos 1833 Rocket 2.8 12:12:41 10° NNW 12:18:21 78° WSW 12:22:44 17° SSE
CZ-4 R/B 4.3 12:18:38 10° W 12:19:14 10° W 12:19:50 10° W
NOSS 2-1 (C) 3.7 12:17:11 10° S 12:20:59 34° ESE 12:24:02 10° ENE
USA 238 DEB 3.4 12:18:02 10° SSW 12:23:59 64° ESE 12:30:30 10° NE
USA 238 3.5 12:18:16 10° SSW 12:24:11 63° ESE 12:30:43 10° NE
Iridium 4 Rocket 3.4 12:20:14 13° S 12:24:48 79° E 12:29:34 10° N
Cosmos 923 Rocket 3.9 12:21:36 10° S 12:26:47 69° ESE 12:31:58 10° NNE
Cosmos 1709 Rocket 4.2 12:20:38 10° N 12:26:57 59° ENE 12:31:25 20° SSE
Terra 4.2 12:26:36 10° SW 12:29:46 18° W 12:32:56 10° NW
Iridium 45 4.0 12:29:13 27° S 12:30:44 78° E 12:33:51 10° N
BREEZE-M R/B 3.4 12:27:03 10° WSW 12:30:50 87° NNW 12:38:17 10° ENE
CZ-4B R/B 3.6 12:27:48 20° SSE 12:31:22 74° ENE 12:36:36 10° N
Cosmos 2112 Rocket 4.3 12:30:52 19° S 12:34:21 47° ESE 12:39:18 10° NNE
Okean O Rocket 3.1 12:32:22 10° SSW 12:36:16 32° W 12:40:12 10° NNW
Cosmos 2082 Rocket 3.2 12:35:45 10° N 12:40:53 35° NE 12:44:32 17° ESE
USA 186 3.5 12:41:30 12° WSW 12:42:22 14° W 12:43:36 10° WNW
Cosmos 2278 Rocket 2.2 12:38:21 13° S 12:43:18 61° ESE 12:48:54 10° NNE
Meteor 1-21 4.2 12:41:38 19° S 12:45:47 72° E 12:51:26 10° NNE
Cosmos 1371 Rocket 4.3 12:41:01 10° NNW 12:46:11 56° ENE 12:48:59 26° SE
CZ-4B R/B 3.2 12:44:14 23° S 12:46:32 59° W 12:50:31 10° NNW
Cosmos 1470 Rocket 3.8 12:43:21 10° N 12:47:44 55° ENE 12:49:42 30° SE
SWARM A 4.2 12:46:20 10° N 12:49:33 74° W 12:50:48 34° SSW
Meteor 1-16 Rocket 4.3 12:46:47 10° N 12:52:25 73° ENE 12:55:45 26° SSE
Cosmos 1328 Rocket 3.7 12:49:36 17° SSW 12:52:52 69° W 12:57:11 10° N
Cosmos 494 Rocket 3.9 12:49:49 18° S 12:53:45 73° ESE 12:59:00 10° NNE
Cosmos 1745 Rocket 4.2 12:47:54 10° NNW 12:54:10 69° W 12:58:53 19° S
Cosmos 1943 Rocket 2.3 12:51:12 10° SSW 12:56:51 81° WNW 13:02:31 10° NNE
GP-B 3.9 12:52:49 10° N 12:57:01 47° W 13:00:21 15° SSW
SPOT 3 Rocket 4.4 12:54:36 17° SSW 12:58:21 44° W 13:03:17 10° NNW
BREEZE-M DEB (TANK) 1.5 12:56:52 10° WNW 12:58:51 89° NNE 12:58:52 88° E
Okean 3 4.1 13:00:39 31° ESE 13:01:24 34° E 13:05:02 10° NNE
Helios 1B rocket 4.2 13:01:39 13° E 13:02:33 14° ENE 13:04:28 10° NNE
Cosmos 1174 4.1 13:08:05 41° SE 13:08:26 43° ESE 13:11:50 10° NE
Cosmos 1953 3.8 13:05:34 10° NNW 13:08:36 26° W 13:10:30 17° SW
SWAS 4.4 13:08:25 42° SSE 13:09:22 53° ESE 13:13:20 10° NE
Meteor 1-12 Rocket 4.3 13:04:54 10° N 13:10:38 72° ENE 13:13:31 31° SSE
USA 215 4.3 13:05:27 10° E 13:11:32 43° NNE 13:17:37 10° NW
Cosmos 1441 Rocket 3.5 13:15:49 38° E 13:15:49 38° E 13:18:38 10° NNE
USA 276 4.3 13:18:23 13° NE 13:18:23 13° NE 13:18:48 10° ENE
SL-8 R/B 3.5 13:15:30 10° WSW 13:20:13 81° SSE 13:24:59 10° ENE
Helios 1A 3.1 13:17:45 10° NNE 13:21:37 50° E 13:22:13 45° SE
COSMOS 2406 4.3 13:16:48 10° N 13:22:00 35° NE 13:25:15 20° ESE
Cosmos 2369 Rocket 3.8 13:22:00 17° ESE 13:22:23 17° E 13:25:54 10° ENE
ARIANE 5 R/B 4.2 13:21:00 19° E 13:22:37 24° ENE 13:26:09 10° NNE
USA 81 4.2 13:19:00 10° N 13:24:13 60° E 13:26:11 36° SE
NOSS 3-1 (C) 4.1 13:25:30 23° ESE 13:25:30 23° ESE 13:29:04 10° ENE
Cosmos 1048 Rocket 4.0 13:23:22 35° S 13:25:31 66° ESE 13:30:46 10° NNE
Cosmos 1680 Rocket 4.2 13:20:42 10° SW 13:25:43 51° WNW 13:30:49 10° NNE
NOSS 2-1 (E) 3.7 13:22:33 10° SW 13:26:32 53° NW 13:29:44 10° NNE
Cosmos 1624 Rocket 4.2 13:21:53 10° NNW 13:27:08 64° WSW 13:29:22 34° S
Cosmos 1869 Rocket 4.1 13:23:10 10° N 13:27:18 44° ENE 13:28:21 37° ESE
CZ-2C R/B 3.3 13:29:16 30° W 13:29:16 30° W 13:31:42 10° NNW
Cosmos 2074 Rocket 4.2 13:26:28 10° N 13:32:37 60° E 13:35:19 33° SE
SL-4 R/B 4.1 13:36:12 11° ENE 13:36:12 11° ENE 13:36:21 10° ENE
Cosmos 1515 Rocket 3.8 13:31:50 33° SSW 13:33:39 64° W 13:37:57 10° N
Cosmos 1656 Rocket 3.9 13:33:14 38° SSE 13:34:51 50° ESE 13:40:12 10° NE
Cosmos 2056 Rocket 3.9 13:31:07 10° NNW 13:36:02 50° WSW 13:37:57 33° SSW
ALOS 2 3.9 13:37:03 24° E 13:38:23 29° ENE 13:42:10 10° N
Lacrosse 5 rocket 4.5 13:39:14 10° NW 13:40:47 12° NNW 13:42:20 10° NNE
USA 59 Rocket 1.9 13:43:27 10° W 13:46:08 20° NW 13:48:31 10° N
Nadezhda 1 Rocket 4.1 13:53:08 38° SSE 13:55:21 58° E 14:01:28 10° NNE
ARIANE 6 FM1 Upper Stage 2.7 13:58:37 56° ESE 13:58:37 56° ESE 14:02:30 10° NE
Cosmos 1400 Rocket 3.5 13:57:15 10° NNW 14:00:39 37° W 14:00:57 36° WSW
BREEZE-M DEB (TANK) 4.4 13:46:31 10° W 14:02:41 60° N 14:07:19 10° E
COSMOS 2455 4.1 14:03:07 23° ESE 14:03:34 23° ESE 14:08:11 10° NE
Spot 4 4.0 14:03:09 46° SE 14:04:26 65° ENE 14:09:13 10° N
Cosmos 1315 Rocket 4.2 14:06:34 10° NNE 14:09:45 25° ENE 14:10:09 24° E
Cosmos 967 Rocket 4.4 14:08:13 34° SSW 14:11:10 76° ESE 14:17:39 10° NE
Okean 1-7 3.3 14:11:00 48° ESE 14:11:13 48° E 14:15:19 10° NNE
PSLV R/B 3.9 14:06:56 10° NNE 14:11:31 54° E 14:12:07 50° SE
Meteor 1-24 Rocket 4.5 14:10:28 34° SE 14:12:12 42° E 14:17:51 10° NNE
USA 290 4.2 14:14:19 10° N 14:16:45 20° ENE 14:16:49 20° ENE
ACS3 Solar Sail 3.0 14:14:04 10° NE 14:18:35 24° E 14:20:02 22° ESE
Cosmos 2184 Rocket 4.2 14:12:54 10° NNW 14:19:07 65° W 14:21:38 37° SSW
Cosmos 2154 Rocket 4.1 14:14:04 10° NNW 14:20:14 69° W 14:22:36 39° SSW
ATLAS 5 CENTAUR R/B 1.7 14:22:34 40° NNE 14:22:34 40° NNE 14:24:44 10° NNE
Cosmos 1110 Rocket 4.5 14:18:42 10° NNW 14:23:38 46° WSW 14:24:45 40° SW
Cosmos 2082 Rocket 3.0 14:19:48 10° NW 14:24:57 38° WSW 14:26:20 33° SW
Cosmos 2278 Rocket 4.2 14:23:17 10° WSW 14:27:49 24° NW 14:32:22 10° N
SL-8 Rocket 4.5 14:22:57 10° N 14:28:55 50° ENE 14:31:18 33° SE
Cosmos 1328 4.2 14:32:46 45° W 14:32:47 45° WNW 14:36:12 10° N
Cosmos 1452 Rocket 3.7 14:28:29 10° NNW 14:33:41 60° WSW 14:34:48 49° SSW
Meteor 2-5 Rocket 4.1 14:32:14 42° SE 14:33:50 54° E 14:39:33 10° NNE
Lacrosse 4 Rocket 3.0 14:30:10 10° N 14:33:53 30° NE 14:35:34 22° E
USA 308 3.7 14:34:27 30° NW 14:34:53 32° NNW 14:38:22 10° NE
Helios 1B rocket 3.0 14:35:31 36° W 14:35:31 36° W 14:38:23 10° NNW
Cosmos 2341 Rocket 4.2 14:36:06 10° N 14:42:16 61° E 14:44:34 38° SE
MetOp-A 3.6 14:44:42 52° E 14:44:54 52° ENE 14:48:35 10° N
Helios 1B 4.4 14:42:45 10° N 14:47:01 80° WNW 14:47:29 68° SW
Meteor 2-13 Rocket 4.5 14:46:53 44° SSE 14:48:48 69° E 14:54:53 10° NNE
USA 276 4.3 14:47:11 10° WNW 14:49:20 23° N 14:51:40 10° NE
CZ-2C R/B 2.8 14:49:12 42° SE 14:50:47 62° ENE 14:56:00 10° N
Exosat Rocket 4.4 14:47:54 32° SW 14:50:51 67° WNW 14:58:49 10° NNE
CZ-2C R/B 2.9 14:48:25 10° NNE 14:53:48 86° ESE 14:55:00 54° S
USA 215 3.1 14:51:02 33° SE 14:54:16 77° SW 15:00:49 10° NW
ARIANE 5 R/B 3.5 14:58:22 35° WSW 14:58:43 36° W 15:02:49 10° NNW
SL-8 R/B 4.5 14:58:07 10° W 15:02:45 52° N 15:07:23 10° ENE
Cosmos 2369 Rocket 2.3 15:03:43 40° SW 15:05:43 71° WNW 15:11:20 10° NNE
COSMOS 2406 3.9 15:01:05 10° NW 15:06:18 39° WSW 15:07:15 36° SW
Cosmos 1869 3.3 15:05:07 10° N 15:08:11 60° NE 15:08:11 60° NE
Cosmos 2297 3.7 15:07:20 42° SW 15:09:18 77° WNW 15:15:04 10° NNE
NOSS 3-1 (A) 2.8 15:09:16 59° SSE 15:09:46 63° ESE 15:15:06 10° NE
SL-4 R/B 3.0 15:09:29 26° WNW 15:10:33 33° NNW 15:13:28 10° NE
ALOS 2 3.8 15:14:26 28° W 15:14:39 28° W 15:18:29 10° NW
NOSS 3-1 (C) 3.7 15:12:45 25° WSW 15:15:14 47° NW 15:20:37 10° NNE
Cosmos 1733 Rocket 4.2 15:13:27 10° NNW 15:17:11 29° W 15:17:28 29° W
Cosmos 2228 Rocket 3.5 15:19:15 45° WSW 15:19:54 49° WNW 15:24:11 10° N
Cosmos 1703 Rocket 3.4 15:21:18 71° S 15:21:46 86° E 15:26:11 10° N
Meteor 2-15 Rocket 4.3 15:16:54 10° N 15:23:01 85° W 15:25:05 45° S
Cosmos 2366 rocket 4.1 15:19:50 10° NNW 15:26:07 68° W 15:28:15 42° SSW
Nadezhda 3 Rocket 4.5 15:25:30 33° SE 15:27:55 50° E 15:33:56 10° NNE
Cosmos 2181 Rocket 4.0 15:28:47 43° S 15:31:04 86° W 15:37:31 10° N
Landsat 5 3.1 15:29:30 10° NNE 15:33:11 79° E 15:33:11 79° E
Cosmos 1356 Rocket 3.7 15:31:29 10° NNW 15:35:22 50° W 15:35:22 50° W
Cosmos 1821 Rocket 3.9 15:33:01 10° N 15:39:07 79° W 15:41:15 43° S
Cosmos 1315 Rocket 4.4 15:42:09 10° NW 15:44:48 22° W 15:44:48 22° W
Cosmos 407 Rocket 4.4 15:44:02 31° SE 15:45:19 36° ESE 15:49:58 10° NE
Cosmos 2218 Rocket 4.4 15:40:11 10° NNW 15:46:16 52° W 15:48:21 37° SW
COSMOS 2455 3.1 15:46:13 32° SW 15:48:59 63° NW 15:54:58 10° NNE
Cosmos 1818 4.3 15:48:08 26° WSW 15:50:54 48° NW 15:56:11 10° NNE
GEOS 3 Rocket 4.0 15:56:56 41° SW 15:57:37 43° WSW 16:02:44 10° NW
Cosmos 1908 Rocket 4.3 15:53:31 10° NNW 15:57:37 38° W 15:58:01 37° WSW
ACS3 Solar Sail 2.0 15:55:34 10° N 16:01:04 53° WNW 16:03:23 33° SW
Cosmos 1656 4.2 16:01:22 34° SSE 16:03:08 46° ESE 16:08:24 10° NE
Cosmos 1140 Rocket 3.5 16:03:57 43° SW 16:05:32 69° WNW 16:10:39 10° NNE
CENTAUR R/B 4.4 15:59:00 10° NNW 16:06:39 43° NE 16:15:26 10° ESE
Cosmos 304 Rocket 3.7 16:07:44 50° S 16:08:58 78° ESE 16:13:44 10° NNE
NOSS 2-2 (C) 4.1 16:06:42 10° NNW 16:10:26 57° NE 16:15:30 10° SE
Cosmos 1346 Rocket 2.5 16:10:13 67° SE 16:10:29 71° E 16:14:07 10° NNE
Lacrosse 4 Rocket 2.6 16:07:57 10° NW 16:10:56 28° W 16:10:56 28° W
Cosmos 1782 Rocket 3.9 16:12:36 10° NNW 16:16:49 47° W 16:17:26 44° WSW
DELTA 2 DEB (DPAF) 3.5 16:13:30 10° N 16:17:01 69° WNW 16:17:17 66° WSW
Cosmos 1763 Rocket 3.5 16:13:37 10° NNW 16:18:41 76° ENE 16:21:22 28° SSE
Cosmos 381 Rocket 4.5 16:16:49 36° SSW 16:19:40 89° W 16:26:07 10° NNE
Cosmos 371 Rocket 3.2 16:18:27 46° SSW 16:19:55 86° ESE 16:24:46 10° NNE
USA 276 3.7 16:19:58 10° NW 16:22:33 32° NNE 16:25:17 10° E
BREEZE-M DEB (TANK) 3.9 16:05:25 10° WNW 16:23:34 82° NNE 16:27:34 10° ESE
Meteor 2-19 Rocket 4.5 16:24:42 35° SSW 16:27:22 69° W 16:33:25 10° N
Meteor 1-21 Rocket 4.4 16:28:42 35° SSW 16:31:17 69° WNW 16:37:13 10° N
CZ-2C R/B 4.2 16:30:39 17° WSW 16:31:27 17° W 16:34:53 10° NW
USA 229 DEB 4.4 16:29:07 23° SSE 16:31:50 34° ESE 16:37:31 10° NE
USA 229 4.5 16:29:09 22° SSE 16:31:53 33° ESE 16:37:33 10° NE
Nimbus 7 Rocket 4.4 16:31:00 10° NNE 16:36:55 76° ESE 16:39:58 30° S
SJ 16-02 1.1 16:36:35 46° SSW 16:37:48 85° WNW 16:42:04 10° NNE
USA 215 4.5 16:38:21 21° WSW 16:38:21 21° WSW 16:42:38 10° WNW
IDEFIX/ARIANE 42P 2.7 16:34:21 10° NNE 16:39:34 70° ESE 16:42:08 30° S
Cosmos 2251 Rocket 4.1 16:37:06 27° SSE 16:39:43 50° ESE 16:44:52 10° NNE
MSX 3.9 16:34:48 10° NNE 16:40:34 73° ESE 16:43:41 28° S
FENGYUN 3A 4.1 16:35:39 10° NNE 16:40:56 55° E 16:43:54 25° SSE
SL-8 R/B 4.2 16:40:47 10° WNW 16:45:30 62° NNE 16:50:13 10° E
Cosmos 921 Rocket 3.9 16:44:13 28° WSW 16:45:34 35° WNW 16:49:24 10° N
Spot 1 4.4 16:42:29 10° N 16:47:23 72° WNW 16:49:23 34° SSW
SL-4 R/B 4.0 16:45:58 10° NW 16:48:24 20° N 16:50:51 10° NE
PSLV R/B 4.3 16:45:31 10° N 16:49:11 44° WNW 16:50:12 35° WSW
Cosmos 2297 Rocket 2.7 16:43:47 10° NNW 16:49:25 61° ENE 16:55:00 10° SE
Meteor 1-11 4.2 16:46:45 31° SSW 16:49:30 76° W 16:55:14 10° N
H-2A R/B 4.2 16:46:39 10° NE 16:50:10 18° E 16:53:35 10° SE
Aureole 3 4.4 16:47:44 28° S 16:51:28 84° W 16:57:27 10° N
ADEOS II 4.4 16:51:42 10° NE 16:54:52 16° E 16:57:59 10° SE
Meteor 2-14 Rocket 4.4 16:51:58 26° S 16:55:40 87° E 17:01:52 10° N
Lacrosse 5 rocket 3.1 16:53:08 10° NNW 16:56:08 27° NNE 16:59:04 10° E
Cosmos 1378 Rocket 3.5 16:54:40 37° SSW 16:56:12 64° W 17:00:28 10° N
Meteor 2-1 Rocket 4.4 16:51:15 10° N 16:57:05 77° E 17:02:03 15° SSE
NPP 3.7 16:51:41 10° NNE 16:57:06 75° ESE 17:00:18 25° S
Cosmos 468 Rocket 3.9 16:53:01 10° NNW 16:58:09 83° ENE 17:02:42 13° SSE
Cosmos 1934 Rocket 4.3 16:54:25 10° NNW 17:00:32 53° W 17:04:06 25° SSW
Cosmos 1980 Rocket 4.2 16:56:50 10° SE 17:00:50 20° E 17:04:50 10° NE
Cosmos 2263 Rocket 4.4 17:03:54 10° N 17:08:33 26° NE 17:13:13 10° ESE
Cosmos 540 Rocket 4.0 17:09:34 10° NW 17:14:15 38° WSW 17:16:26 25° SSW
Cosmos 1727 Rocket 4.4 17:11:16 13° S 17:16:43 59° E 17:22:47 10° NNE
Cosmos 405 Rocket 3.0 17:17:21 30° W 17:17:52 32° WNW 17:20:35 10° N
ADEOS Rocket 3.1 17:11:58 10° N 17:17:58 61° WNW 17:21:35 22° SW
Cosmos 2084 Rocket 3.3 17:16:24 29° SW 17:18:19 76° NW 17:22:25 10° NE
Cosmos 968 Rocket 4.5 17:15:22 14° SSE 17:19:25 41° ESE 17:24:20 10° NE
Resurs 1-4 Rocket 3.1 17:15:35 10° NNE 17:20:31 40° E 17:25:27 10° SSE
NOSS 2-2 (E) 3.6 17:18:15 10° NW 17:22:04 79° NE 17:27:19 10° SE
Envisat 3.6 17:17:17 10° NNE 17:22:15 53° E 17:26:29 14° S
Okean 2 Rocket 3.0 17:18:51 10° NNW 17:23:13 76° W 17:26:20 19° S
Cosmos 1782 3.5 17:20:28 10° N 17:23:51 44° ENE 17:27:13 10° SSE
Cosmos 1674 Rocket 4.0 17:23:02 25° SW 17:25:16 48° WNW 17:29:34 10° N
Cosmos 1437 Rocket 4.2 17:23:09 10° N 17:26:14 31° ENE 17:29:17 10° SE
MOS 1-B Rocket 4.1 17:22:33 10° N 17:28:24 61° WNW 17:32:17 20° SW
Cosmos 841 Rocket 3.6 17:24:57 10° NNW 17:30:10 78° ENE 17:35:19 10° SSE
NOAA 11 4.2 17:24:44 10° NNE 17:30:16 84° WNW 17:34:24 18° SSW
Cosmos 2151 Rocket 4.1 17:29:04 10° NNW 17:33:18 43° W 17:35:53 21° SSW
Cosmos 2058 4.3 17:30:22 10° SSE 17:33:49 31° E 17:37:18 10° NNE
Cosmos 2100 Rocket 4.4 17:31:32 10° N 17:37:46 65° E 17:43:53 10° SSE
SL-24 DEB 4.1 17:36:21 17° S 17:39:37 63° W 17:44:02 10° N
ATLAS 3B R/B 3.1 17:34:20 17° SSW 17:40:26 74° ESE 17:48:19 10° NE
DMSP B5D2-2 4.0 17:37:01 10° SSE 17:42:16 83° WSW 17:47:34 10° NNW
Okean 1 Rocket 3.4 17:42:57 10° NNW 17:47:05 45° W 17:50:12 16° SSW
Cosmos 1954 Rocket 4.3 17:43:37 18° SW 17:47:17 52° WNW 17:52:20 10° NNE
Cosmos 1025 Rocket 4.2 17:48:02 17° WSW 17:50:34 29° WNW 17:54:23 10° NNW
Cosmos 2221 Rocket 4.1 17:47:51 18° SW 17:50:56 46° WNW 17:55:20 10° N
NOSS 2-2 (D) 4.1 17:48:47 10° NW 17:52:32 38° WSW 17:57:35 10° S
Gbstr 26 Del rocket 4.4 17:47:25 13° WSW 17:53:35 82° NNW 18:01:23 10° ENE
USA 276 1.9 17:52:30 10° WNW 17:55:24 57° SSW 17:58:25 10° SE
Cosmos 332 Rocket 4.3 17:51:59 17° SW 17:55:28 46° WNW 18:00:03 10° N
Cosmos 1697 Rocket 2.8 17:52:36 16° SW 17:57:10 67° WNW 18:02:46 10° NNE
CENTAUR R/B 3.4 17:49:29 10° NW 17:57:56 68° WSW 18:07:22 10° SSE
Cosmos 2292 Rocket 3.5 17:57:27 18° SW 17:59:26 40° WNW 18:02:57 10° N
ALOS 2.3 17:54:58 10° NNE 17:59:33 83° ESE 18:04:05 10° SSW
Cosmos 1975 Rocket 3.1 17:57:31 10° S 18:01:48 77° E 18:06:05 10° NNE
Cosmos 1000 Rocket 4.5 17:56:37 10° S 18:02:45 79° W 18:09:00 10° N
Cosmos 2227 Rocket 2.2 17:58:00 10° NNW 18:03:41 87° WSW 18:09:19 10° SSE
Sich 1 Rocket 4.4 18:01:57 10° NNW 18:06:04 35° W 18:09:51 12° SSW
CZ-2D R/B 2.2 18:01:58 10° NNE 18:07:26 88° WNW 18:12:48 10° SSW
Atlas 2A Centaur Rocket 4.3 18:07:23 10° SSE 18:08:29 11° SSE 18:09:49 10° SE
Cosmos 1802 Rocket 4.3 18:02:51 10° N 18:09:16 76° E 18:15:41 10° SSE
MOZ.5/SAFIR/RUBIN 5/SL-8 4.3 18:06:33 10° SSW 18:10:50 39° W 18:15:11 10° NNW
IDEFIX/ARIANE 42P 4.4 18:15:02 10° NNW 18:18:26 18° WNW 18:21:50 10° W
USA 229 DEB 4.1 18:16:35 10° WSW 18:22:24 50° NW 18:28:58 10° NNE
USA 229 4.0 18:16:36 10° WSW 18:22:26 51° NW 18:29:01 10° NNE
SL-4 R/B 3.0 18:23:19 10° NW 18:26:14 36° NNE 18:29:09 10° E
SL-8 R/B 3.8 18:23:10 10° WNW 18:27:46 50° SSW 18:32:21 10° SE
Cosmos 2233 Rocket 4.5 18:22:01 10° N 18:28:15 68° E 18:34:32 10° SSE
SeaSat 1 2.5 18:24:17 10° SSE 18:29:10 88° WSW 18:34:06 10° NNW
H-2A R/B 2.2 18:24:44 10° N 18:29:52 59° WNW 18:34:49 10° SSW
Cosmos 158 Rocket 4.2 18:26:57 10° NNW 18:31:51 72° ENE 18:36:40 10° SSE
USA 281 4.3 18:25:50 10° SE 18:32:06 50° ENE 18:38:23 10° NNW
Cosmos 2219 4.1 18:26:39 10° NNW 18:32:14 57° ENE 18:37:49 10° SE
Lacrosse 5 rocket 1.2 18:29:32 10° WNW 18:32:42 38° SW 18:35:48 10° SSE
Cosmos 2297 Rocket 3.5 18:28:50 10° NW 18:32:54 21° W 18:36:58 10° SSW
Aureole 3 Rocket 3.9 18:29:54 10° N 18:34:30 51° ENE 18:37:59 10° SSE
ADEOS II 2.2 18:29:41 10° N 18:34:53 69° WNW 18:40:04 10° SSW
Cosmos 1455 Rocket 4.1 18:31:33 10° NNW 18:35:13 27° W 18:38:53 10° SSW
ARGOS 3.4 18:30:33 10° NNE 18:35:57 74° ESE 18:41:20 10° S
Cosmos 1933 3.5 18:32:38 10° N 18:36:27 71° E 18:40:13 10° SSE
H-2A R/B 2.4 18:34:11 10° S 18:38:00 56° W 18:41:53 10° NNW
